星链-6260 (STARLINK-6260 )

导读

STARLINK-6260是美国SpaceX公司星链星座的一员,于2023年5月4日发射升空,归属美国。星链作为全球规模最大的低轨卫星互联网星座,计划最终部署约4.2万颗卫星,这颗卫星运行在近地轨道,配备霍尔推进器和相控阵天线,可自主规避空间碰撞,为全球提供低时延互联网接入服务,助力偏远地区网络覆盖。

Basic Information
目录编号:
56416
目录名称:
STARLINK-6260
国际标识:
2023-061AU
轨道中心:
EARTH
卫星名称:
星链-6260
卫星全名:
星链-6260 (STARLINK-6260 )
卫星状态:
在轨 (已飞行1227 天)
发射日期:
2023-05-04 UTC
国别 :
美国 (US)
星等 :
--
This satellite is enrolled in the Space Conjunction Data Service (SCDS) and the current flight risk assessment level is: High Risk
Orbit Information
数据来源 国际轨道数据 AOE轨道数据
星历时间 2026-09-12T13:13:59+0800
11小时前
查看轨道信息
2026-09-10T22:00:00+0800
2天前
查看轨道信息
半长轴 6861.174km 6861.185km
偏心率 0.0001331 0.0000026
轨道倾角 43.002° 43.000°
近地点辐角 265.478° 185.044°
升交点赤经 206.412° 215.648°
平近点角 94.591° 174.666°
近地点 482.123km 483.03km
远地点 483.951km 483.066km
周期 94.266分钟 94.267分钟
每日圈数 15.275843 15.275806
Detailed Information
固有亮度:
5
最大亮度:
2.5
卫星平台:
Starlink v1.5
覆盖范围:
全球
运营商:
太空探索技术公司
运营商所在国:
美国
制造商(研发单位):
太空探索技术公司
制造商所在国:
美国
使用方式:
暂无
Satellite Introduction
星链(Starlink)计划是由太空探索技术公司(SpaceX)提出的一个巨型低轨卫星互联网星座项目,计划在2019年至2024年间在太空搭建由约1.2万颗卫星组成的“星链”网络,其中1584颗将部署在地球上空550千米处的近地轨道,并从2020年开始工作。该卫星仍在工作。
2D Orbit Map
3D Orbit Map
Orbit Altitude Analysis Chart
Orbit Inclination Analysis Chart
Orbit Comprehensive Analysis Chart
View Comprehensive Chart
Miss Distance Evolution Trend with All Objects
Collision Probability Evolution Trend with All Objects